Regional Weather Roundup
Issued by NWS

Home | Current Version | Previous Version | Graphics & Text | Print | Product List | Glossary Off
Versions: 1 2 3 4 5 6 7 8 9 10 11 12 13 14 15 16 17 18 19 20 21 22 23 24 25 26 27 28 29 30 31 32 33 34 35 36 37 38 39 40 41 42 43 44 45 46 47 48 49 50

000
ASUS43 KDTX 312101
RWRMI
MICHIGAN HOURLY REGIONAL WEATHER ROUNDUP
NATIONAL WEATHER SERVICE DETROIT/PONTIAC MI
500 PM EDT THU JUL 31 2014

NOTE: "FAIR" INDICATES FEW OR NO CLOUDS BELOW 12,000 FEET WITH NO
SIGNIFICANT WEATHER AND/OR OBSTRUCTION TO VISIBILITY.

MIZ047>049-052>055-059>063-066>070-074>076-081>083-312200-
SOUTHEAST LOWER MICHIGAN

CITY           SKY/WX    TMP DP  RH WIND       PRES   REMARKS
ADRIAN         MOSUNNY   80  56  43 NW15G21   30.03
ALMA           PTSUNNY   75  57  53 CALM      29.99S
ANN ARBOR      MOSUNNY   80  55  42 W10       30.02S
BAD AXE        SUNNY     76  53  45 W9        29.99S
CARO           MOSUNNY   79  59  50 W3        29.98F
DETROIT CITY   PTSUNNY   81  55  40 SW9       30.01S
DETROIT        MOSUNNY   80  56  43 SW16G22   30.02S
FLINT          MOSUNNY   77  58  51 SW10      29.99F
GROSSE ILE     MOSUNNY   81  55  41 SW10G16   30.01S
HILLSDALE      MOSUNNY   77  59  54 W7        30.05S
HOWELL         PTSUNNY   77  58  51 W7        30.01F

CITY           SKY/WX    TMP DP  RH WIND       PRES   REMARKS
JACKSON        PTSUNNY   77  60  55 W6        30.02F
LAMBERTVILLE   PTSUNNY   81  55  41 SW9       30.03S
LANSING        MOSUNNY   78  58  49 SW13      30.01F
LAPEER         FAIR      76  54  46 W7        30.00S
MASON          PTSUNNY   79  57  47 W9G16     30.01S
MONROE         SUNNY     81  55  41 W10       30.01S
MT. CLEMENS    MOSUNNY   80  56  45 W9G21     29.99F
PONTIAC        MOSUNNY   77  57  50 SW13      30.01S
PORT HOPE        N/A     75  53  46 W8        29.97S
PORT HURON     PTSUNNY   77  57  50 W7        30.00F
TRI CITIES     SUNNY     79  55  43 W8        29.99S
TROY           CLOUDY    76  55  46 SW13      30.02S
SAGINAW HB     PTSUNNY   79  54  41 W5        29.98F
$$
MIZ043>046-050>051-056>058-064>065-071>073-077>080-312200-
SOUTHWEST LOWER MICHIGAN

CITY           SKY/WX    TMP DP  RH WIND       PRES   REMARKS
BATTLE CREEK   SUNNY     79  58  48 W9        30.04S
BENTON HARBOR  SUNNY     80  57  45 W8        30.03F
BIG RAPIDS     MOSUNNY   78  52  40 W8G21     29.98S
COLDWATER      MOSUNNY   79  58  47 W10       30.03S
FREMONT        FAIR      76  56  49 SW10G17   30.00S
HOLLAND        SUNNY     78  60  53 SW10      30.03F
GRAND RAPIDS   MOSUNNY   80  59  48 W14G22    30.02S
IONIA          MOCLDY    78  58  49 W14G20    30.00S
KALAMAZOO      MOSUNNY   80  57  45 NW14G21   30.03F
LUDINGTON      SUNNY     72  62  70 W7        29.99F
MARSHALL       MOSUNNY   78  59  51 W10G18    30.02F
MOUNT PLEASANT PTSUNNY   77  56  48 W3        29.98S
MUSKEGON       SUNNY     72  58  61 SW9       30.01F
SOUTH HAVEN    SUNNY     76  62  59 W9        30.02F
$$
MIZ016>042-312200-
NORTHERN LOWER MICHIGAN

CITY           SKY/WX    TMP DP  RH WIND       PRES   REMARKS
ALPENA         CLOUDY    73  51  46 NW3       29.95R
BEAVER ISLAND  CLOUDY    66  60  81 SW12      29.96S
BELLAIRE       SUNNY     76  50  39 W5        29.95S
CADILLAC       MOSUNNY   76  51  40 W10       29.98S
CHARLEVOIX     CLOUDY    71  56  60 SW9       29.99S
FRANKFORT      SUNNY     72  57  58 SW7       29.98F
GAYLORD        SUNNY     74  46  36 W13G21    29.97S
GRAYLING       PTSUNNY   74  49  40 W5        29.98F
HARBOR SPRINGS PTSUNNY   71  54  55 W12G18    29.96R
HOUGHTON LAKE  PTSUNNY   74  50  42 W8        29.98S
MANISTEE       SUNNY     73  57  56 W6        29.99F
OSCODA         MOSUNNY   75  50  40 SW7       29.95S
PELLSTON       PTSUNNY   73  55  53 SW15G23   29.96R
ROGERS CITY    SUNNY     77  51  41 W7G21     29.94S
TRAVERSE CITY  MOSUNNY   79  45  29 SW8       29.95S
$$
MIZ007>008-015-312200-
EASTERN UPPER MICHIGAN

CITY           SKY/WX    TMP DP  RH WIND       PRES   REMARKS
KINROSS        CLOUDY    61  59  94 CALM      29.95R
MACKINAC ISLAN MOSUNNY   67  58  72 W12G20    29.94S
NEWBERRY       CLOUDY    71  52  50 W10       29.93R
S. S. MARIE    CLOUDY    69  50  50 NW7       29.93R
MUNISING         N/A     67  57  70 N6        29.95R
$$
MIZ004>006-011>014-085-312200-
CENTRAL UPPER MICHIGAN

CITY           SKY/WX    TMP DP  RH WIND       PRES   REMARKS
MANISTIQUE     PTSUNNY   65  59  80 SW10      29.94S
ESCANABA       SUNNY     79  52  38 NW10      29.92S
MENOMINEE      SUNNY     79  52  38 W7        29.93S
SAWYER-GWINN   PTSUNNY   72  50  46 N12       29.96R
$$
MIZ001>003-009>011-084-312200-
WESTERN UPPER MICHIGAN

CITY           SKY/WX    TMP DP  RH WIND       PRES   REMARKS
IRON MOUNTAIN  MOSUNNY   78  47  33 NW14G22   29.95S
HOUGHTON       SUNNY     72  48  42 VRB7      29.95S
COPPER HARBOR    N/A     71  54  54 N12       29.92S
$$

ABBREVIATIONS USED IN REMARKS
   TC - TEMPERATURE IN CELSIUS
  WCI - WIND CHILL INDEX
   HX - HEAT INDEX
  VSB - VISIBILITY



USA.gov is the U.S. government's official web portal to all federal, state and local government web resources and services.